Regional Weather Roundup
Issued by NWS Sterling, VA

Home | Current Version | Previous Version | Text Only | Print | Product List | Glossary Off
Versions: 1 2 3 4 5 6 7 8 9 10 11 12 13 14 15 16 17 18 19 20 21 22 23 24 25 26 27 28 29 30 31 32 33 34 35 36 37 38 39 40 41 42 43 44 45 46 47 48 49 50

000
ASUS41 KLWX 270210
RWRLWX

REGIONAL WEATHER ROUNDUP
NATIONAL WEATHER SERVICE BALTIMORE MD/WASHINGTON DC
1000 PM EDT TUE MAY 26 2015

Note: "FAIR" indicates few or no clouds below 12,000 feet
with no significant weather and/or obstructions to visibility.
 TC=TEMPERATURE CELSIUS

 * =Non NWS site. Station does not report precipitation (e.g. rain,
    snow, etc.), thunder, or fog.

DCZ001-MDZ009-015-VAZ040>042-051-053>054-270300-
WASHINGTON METRO

CITY           SKY/WX    TMP DP  RH WIND       PRES   REMARKS
WASHINGTON NAT MOCLDY    79  70  74 S8        30.15R
DULLES         MOCLDY    78  67  68 S6        30.14R
ANDREWS AFB    PTCLDY    74  66  77 SE9       30.16R
FT BELVOIR     PTCLDY    77  67  72 SE6       30.15R
QUANTICO       PTCLDY    78  70  76 S8        30.16R
COLLEGE PARK*  PTCLDY    79  68  69 CALM      30.15R
LEESBURG*      LGT RAIN  77  72  83 SW12      30.15R
MANASSAS*      MOCLDY    75  70  83 S7        30.14S
GAITHERSBURG*  CLOUDY    77  64  65 SE7       30.19R

$$

MDZ006>007-011-014-270300-
BALTIMORE METRO

CITY           SKY/WX    TMP DP  RH WIND       PRES   REMARKS
BWI AIRPORT    PTCLDY    73  65  75 S7        30.15R
MD SCIENCE CTR   N/A     75  65  70 MISG      30.17R
MARTIN STATE   PTCLDY    75  68  78 SE15G22   30.17R
ANNAPOLIS      CLEAR     73  65  75 S20G25    30.17R
FORT MEADE*    PTCLDY    72  64  78 SE5       30.18R

$$

MDZ012-015-019>023-270300-
MARYLAND EASTERN SHORE

CITY           SKY/WX    TMP DP  RH WIND       PRES   REMARKS
OCEAN CITY     CLEAR     68  62  81 SW12G21   30.25R
SALISBURY      CLEAR     69  64  84 S8        30.22R
BAY BRIDGE AP*   N/A    N/A N/A N/A S12       30.18R
CAMBRIDGE*     MOCLDY    73  64  73 S9G16     30.19R
EASTON*        PTCLDY    76  68  77 S13       30.22R

$$

MDZ017>025-270300-
SOUTHERN MARYLAND

CITY           SKY/WX    TMP DP  RH WIND       PRES   REMARKS
PATUXENT RIVER PTCLDY    73  66  78 S6        30.18R
ST INIGOES     CLEAR     73  67  81 SE10      30.18R
LEONARDTOWN*   CLEAR     72  64  78 SE6       30.20R

$$

MDZ003>005-270300-
NORTH CENTRAL MARYLAND

CITY           SKY/WX    TMP DP  RH WIND       PRES   REMARKS
FREDERICK*     CLOUDY    77  70  78 S6        30.16R
HAGERSTOWN APT CLOUDY    80  66  62 S12       30.13R
WESTMINSTER*   CLOUDY    77  68  73 SE7       30.16R

$$

MDZ501>502-270300-
WESTERN MARYLAND

CITY           SKY/WX    TMP DP  RH WIND       PRES   REMARKS
OAKLAND*       MOCLDY    64 N/A N/A SE9       30.20S
CUMBERLAND*    MOCLDY    72  70  94 CALM      30.16R

$$

VAZ025>031-270300-
SHENANDOAH VALLEY

CITY           SKY/WX    TMP DP  RH WIND       PRES   REMARKS
WINCHESTER*    CLOUDY    73  66  78 CALM      30.15R
FRONT ROYAL*   FAIR      70  68  94 S3        30.14S
LURAY*         FAIR      73  72  94 SW6       30.17R
NEW MARKET*    FAIR      71  68  91 SW3       30.15S
STAUNTON*      MOCLDY    69  67  94 CALM      30.21R
WAYNESBORO*    FAIR      67  67 100 CALM      30.20R

$$

WVZ021-048>050-054>055-270300-
EASTERN WEST VIRGINIA PANHANDLE

CITY           SKY/WX    TMP DP  RH WIND       PRES   REMARKS
MARTINSBURG    CLOUDY    75  67  76 S6        30.14R
PETERSBURG*    PTCLDY    72  61  69 SE7       30.16R

$$

VAZ036>039-050-270300-
CENTRAL FOOTHILLS

CITY           SKY/WX    TMP DP  RH WIND       PRES   REMARKS
CHARLOTTESVILL MOCLDY    77  66  68 S10       30.16S
CULPEPER*      CLOUDY    77  68  74 S3        30.15S
ORANGE*        CLOUDY    79  68  69 S8        30.17S
GORDONSVILLE*  FAIR      75  67  76 SW3       30.16R
WARRENTON*     FAIR      79  70  73 S3        30.15S

$$

VAZ055>057-270300-
NORTH AND CENTRAL PIEDMONT

CITY           SKY/WX    TMP DP  RH WIND       PRES   REMARKS
FREDERICKSBRG* PTCLDY    79  68  70 S8        30.15S
STAFFORD*      PTCLDY    77  66  68 S3        30.20R

$$

NCZ024-NYZ072-PAZ021-071-VAZ022-071-270300-
OTHER REGIONAL OBSERVATIONS

CITY           SKY/WX    TMP DP  RH WIND       PRES   REMARKS
NEW YORK CITY  PTCLDY    76  61  59 VRB6      30.18R
PHILADELPHIA   MOCLDY    77  64  64 S14       30.18R
PITTSBURGH     PTCLDY    74  64  71 SE6       30.06F
ROANOKE        CLEAR     76  63  64 E5        30.21R
RICHMOND       PTCLDY    74  65  73 S7        30.18R
RALEIGH        MOCLDY    77  69  76 S9        30.22R

$$

ANZ530>537-270300-
MARINE OBSERVATIONS

STATION/POSITION TIME  TEMP    WIND        PRES
                       AIR SEA DIR/SP/G
                 (UTC) (F)     (DEG/KT/KT) (MB)
THOMAS PT LIGHT  0200   71 69  170/ 17/ 19 1022.1R
BALT KEY BRIDGE  0100   74     150/ 14/ 16 1020.4R
COVE POINT       0100   70     190/ 15/ 18 1022.4R
LEWISETTA        0100   74 71              1021.6R
SOLOMONS ISLAND  0100      71                N/A
PINEY POINT      0100          170/ 11/ 12   N/A

$$



USA.gov is the U.S. government's official web portal to all federal, state and local government web resources and services.